GW6613 Weather Reports


time (UTC)temp
C
wind
direction
speed
KPH
gust
KPH
rain 1hr
cm
rain 24hr
cm
rain mn
cm
humidity
%
barometer
mb
20260503201520 17 133 4.8 12.9 0.00 0.00 0.00 37 1015.1
20260503201510 14 283 1.6 8.0 0.00 0.00 0.00 21 1008.9
20260503201008 17 128 4.8 12.9 0.00 0.00 0.00 38 1015.1
20260503200512 14 310 1.6 9.7 0.00 0.00 0.00 24 1008.9
20260503200023 17 297 1.6 9.7 0.00 0.00 0.00 38 1015.2
20260503200009 14 288 1.6 9.7 0.00 0.00 0.00 22 1008.9
20260503195510 16 152 3.2 9.7 0.00 0.00 0.00 35 1015.4
20260503195007 14 275 1.6 8.0 0.00 0.00 0.00 23 1008.9
20260503194508 15 108 4.8 19.3 0.00 0.00 0.00 36 1015.6
20260503194007 16 164 6.4 12.9 0.00 0.00 0.00 36 1015.8
20260503193510 13 54 3.2 12.9 0.00 0.00 0.00 22 1009.1
20260503193507 16 121 3.2 11.3 0.00 0.00 0.00 39 1016.1
20260503193031 16 324 1.6 11.3 0.00 0.00 0.00 35 1016.1
20260503193020 13 276 1.6 11.3 0.00 0.00 0.00 21 1009.2
20260503192508 13 297 3.2 11.3 0.00 0.00 0.00 23 1009.4
20260503192505 16 149 3.2 16.1 0.00 0.00 0.00 36 1016.3
20260503192008 16 57 4.8 16.1 0.00 0.00 0.00 34 1016.4
20260503192005 13 329 3.2 11.3 0.00 0.00 0.00 21 1009.4
20260503191517 17 262 3.2 14.5 0.00 0.00 0.00 35 1016.3
20260503191505 13 240 1.6 9.7 0.00 0.00 0.00 24 1009.3
20260503191012 16 138 4.8 17.7 0.00 0.00 0.00 34 1016.5
20260503190510 16 54 4.8 17.7 0.00 0.00 0.00 33 1016.6
20260503190503 13 266 3.2 9.7 0.00 0.00 0.00 25 1009.4
20260503190024 17 143 6.4 11.3 0.00 0.00 0.00 33 1016.6
20260503190004 13 192 1.6 8.0 0.00 0.00 0.00 25 1009.4
20260503185506 17 356 3.2 16.1 0.00 0.00 0.00 35 1016.6
20260503185503 13 281 1.6 8.0 0.00 0.00 0.00 26 1009.5
20260503185012 16 86 6.4 16.1 0.00 0.00 0.00 33 1016.6
20260503185002 13 265 0.0 6.4 0.00 0.00 0.00 26 1009.3
20260503184525 16 355 3.2 19.3 0.00 0.00 0.00 38 1016.7
20260503184503 13 266 1.6 8.0 0.00 0.00 0.00 24 1009.3
20260503184009 16 143 4.8 19.3 0.00 0.00 0.00 33 1016.8
20260503184003 13 139 1.6 6.4 0.00 0.00 0.00 26 1009.4
20260503183502 13 270 1.6 9.7 0.00 0.00 0.00 24 1009.4
20260503183012 16 108 4.8 14.5 0.00 0.00 0.00 34 1017.0
20260503183002 13 126 3.2 9.7 0.00 0.00 0.00 26 1009.6
20260503182507 16 160 3.2 16.1 0.00 0.00 0.00 38 1017.0
20260503182500 13 269 1.6 6.4 0.00 0.00 0.00 25 1009.6
20260503182100 13 229 1.6 8.0 0.00 0.00 0.00 25 1009.5
20260503182006 16 114 3.2 16.1 0.00 0.00 0.00 36 1017.1
20260503181602 13 240 1.6 16.1 0.00 0.00 0.00 26 1009.5
20260503181512 16 110 6.4 11.3 0.00 0.00 0.00 35 1017.1
20260503181159 12 322 3.2 9.7 0.00 0.00 0.00 25 1009.6
20260503181008 16 143 4.8 12.9 0.00 0.00 0.00 37 1017.2
20260503180557 12 308 1.6 8.0 0.00 0.00 0.00 28 1009.7
20260503180508 16 127 3.2 16.1 0.00 0.00 0.00 37 1017.2
20260503180057 12 226 0.0 6.4 0.00 0.00 0.00 30 1009.8
20260503180021 16 31 6.4 16.1 0.00 0.00 0.00 38 1017.3
20260503175556 12 360 0.0 8.0 0.00 0.00 0.00 30 1009.7
20260503175509 16 329 3.2 20.9 0.00 0.00 0.00 36 1017.3
20260503175055 12 219 1.6 8.0 0.00 0.00 0.00 30 1009.9
20260503175007 16 114 4.8 20.9 0.00 0.00 0.00 38 1017.4
20260503174612 12 298 1.6 9.7 0.00 0.00 0.00 26 1009.9
20260503174529 15 126 4.8 14.5 0.00 0.00 0.00 36 1017.5
20260503174055 12 270 1.6 9.7 0.00 0.00 0.00 33 1010.1
20260503174007 15 314 4.8 12.9 0.00 0.00 0.00 37 1017.5
20260503173555 11 262 0.0 6.4 0.00 0.00 0.00 31 1010.0
20260503173511 15 134 6.4 16.1 0.00 0.00 0.00 37 1017.6
20260503173057 11 226 1.6 11.3 0.00 0.00 0.00 32 1010.2
20260503173027 15 106 4.8 16.1 0.00 0.00 0.00 37 1017.7
20260503172555 11 360 0.0 11.3 0.00 0.00 0.00 34 1010.1
20260503172509 15 120 8.0 16.1 0.00 0.00 0.00 34 1017.9
20260503172055 11 360 3.2 8.0 0.00 0.00 0.00 31 1010.1
20260503172003 15 122 8.0 16.1 0.00 0.00 0.00 35 1018.0
20260503171554 11 284 3.2 8.0 0.00 0.00 0.00 30 1010.0
20260503171521 15 131 4.8 12.9 0.00 0.00 0.00 35 1018.1
20260503171155 11 360 0.0 6.4 0.00 0.00 0.00 32 1010.2
20260503171008 15 143 6.4 12.9 0.00 0.00 0.00 35 1018.2
20260503170555 11 203 1.6 6.4 0.00 0.00 0.00 32 1010.1
20260503170506 15 129 4.8 14.5 0.00 0.00 0.00 35 1018.2
20260503151002 12 154 1.6 12.9 0.00 0.00 0.00 52 1019.5
20260503150550 10 350 1.6 6.4 0.00 0.00 0.00 30 1010.4
20260503150507 12 134 4.8 12.9 0.00 0.00 0.00 51 1019.5
20260503131140 10 360 1.6 6.4 0.00 0.00 0.00 42 1010.3
20260503131007 8 130 3.2 8.0 0.00 0.00 0.00 61 1019.4
20260503130540 10 360 0.0 6.4 0.00 0.00 0.00 39 1010.4
20260503130504 7 122 1.6 8.0 0.00 0.00 0.00 60 1019.4
20260503110535 6 108 0.0 4.8 0.00 0.00 0.00 48 1010.0
20260503110503 3 136 0.0 3.2 0.00 0.00 0.00 76 1018.7
20260503090504 1 288 0.0 0.0 0.00 0.00 0.00 87 1018.3
20260503081539 7 240 0.0 3.2 0.00 0.00 0.00 45 1009.0
20260503081507 2 288 0.0 0.0 0.00 0.00 0.00 87 1018.1
20260503081122 7 240 0.0 3.2 0.00 0.00 0.00 42 1009.0
20260503081004 2 288 0.0 0.0 0.00 0.00 0.00 87 1018.1
20260503080519 7 240 0.0 3.2 0.00 0.00 0.00 42 1009.0
20260503080504 2 288 0.0 0.0 0.00 0.00 0.00 86 1018.1
20260503072520 7 172 0.0 4.8 0.00 0.00 0.00 43 1009.0
20260503072503 2 288 0.0 0.0 0.00 0.00 0.00 87 1018.0
20260503072018 7 172 0.0 6.4 0.00 0.00 0.00 43 1008.8
20260503072003 2 288 0.0 0.0 0.00 0.00 0.00 86 1018.0
20260503071531 7 128 0.0 6.4 0.00 0.00 0.00 44 1008.8
20260503071505 2 288 0.0 0.0 0.00 0.00 0.00 86 1018.0
20260503071115 7 195 0.0 1.6 0.00 0.00 0.00 44 1009.0
20260503071004 2 288 0.0 0.0 0.00 0.00 0.00 86 1018.1
20260503070516 7 196 0.0 1.6 0.00 0.00 0.00 44 1009.0
20260503070503 2 288 0.0 0.0 0.00 0.00 0.00 86 1018.1
20260503055005 8 204 0.0 6.4 0.00 0.00 0.00 39 1009.2
20260503055003 1 288 0.0 0.0 0.00 0.00 0.00 86 1018.3
20260503054521 8 214 0.0 6.4 0.00 0.00 0.00 36 1009.3
20260503054508 1 288 0.0 0.0 0.00 0.00 0.00 86 1018.4
20260503054006 8 24 0.0 4.8 0.00 0.00 0.00 37 1009.3
20260503053507 1 288 0.0 0.0 0.00 0.00 0.00 86 1018.4
20260503053504 8 82 1.6 4.8 0.00 0.00 0.00 36 1009.4
20260503053012 2 288 0.0 0.0 0.00 0.00 0.00 86 1018.4
20260503053003 8 49 0.0 3.2 0.00 0.00 0.00 37 1009.3
20260503052507 2 288 0.0 0.0 0.00 0.00 0.00 85 1018.4
20260503052503 9 49 0.0 3.2 0.00 0.00 0.00 37 1009.5
20260503052003 2 288 0.0 0.0 0.00 0.00 0.00 85 1018.4
20260503051504 2 288 0.0 0.0 0.00 0.00 0.00 85 1018.3
20260503051500 9 94 0.0 6.4 0.00 0.00 0.00 35 1009.7
20260503051100 9 113 0.0 8.0 0.00 0.00 0.00 36 1009.6
20260503051003 2 288 0.0 0.0 0.00 0.00 0.00 85 1018.4
20260503050600 9 113 0.0 8.0 0.00 0.00 0.00 35 1009.6
20260503050504 2 288 0.0 0.0 0.00 0.00 0.00 85 1018.4
20260503050007 2 288 0.0 0.0 0.00 0.00 0.00 84 1018.4
20260503045600 9 69 0.0 6.4 0.00 0.00 0.00 34 1009.7
20260503045503 2 288 0.0 0.0 0.00 0.00 0.00 84 1018.4
20260503045059 9 172 0.0 6.4 0.00 0.00 0.00 35 1009.7
20260503045007 2 288 0.0 0.0 0.00 0.00 0.00 84 1018.4
20260503044557 9 359 0.0 4.8 0.00 0.00 0.00 36 1009.8
20260503044505 2 288 0.0 0.0 0.00 0.00 0.00 83 1018.4
20260503044056 9 154 1.6 4.8 0.00 0.00 0.00 33 1009.8
20260503044005 2 288 0.0 0.0 0.00 0.00 0.00 83 1018.4
20260503043556 10 236 1.6 4.8 0.00 0.00 0.00 33 1009.7
20260503043503 2 288 0.0 0.0 0.00 0.00 0.00 82 1018.5
20260503043056 10 104 1.6 8.0 0.00 0.00 0.00 34 1009.8
20260503043008 2 288 0.0 0.0 0.00 0.00 0.00 83 1018.4
20260503042555 10 179 0.0 8.0 0.00 0.00 0.00 34 1009.9
20260503042507 2 288 0.0 0.0 0.00 0.00 0.00 82 1018.4
20260503042055 10 244 0.0 6.4 0.00 0.00 0.00 33 1009.8
20260503042006 2 288 0.0 0.0 0.00 0.00 0.00 82 1018.4
20260503041555 10 227 0.0 11.3 0.00 0.00 0.00 33 1010.0
20260503041516 2 288 0.0 0.0 0.00 0.00 0.00 81 1018.4
20260503041053 10 101 0.0 4.8 0.00 0.00 0.00 33 1010.0
20260503041006 2 288 0.0 0.0 0.00 0.00 0.00 80 1018.5
20260503040553 10 101 1.6 4.8 0.00 0.00 0.00 33 1009.9
20260503040509 2 288 0.0 0.0 0.00 0.00 0.00 80 1018.5
20260503040056 10 131 0.0 4.8 0.00 0.00 0.00 35 1009.9
20260503040004 2 288 0.0 0.0 0.00 0.00 0.00 80 1018.6
20260503035552 10 134 0.0 4.8 0.00 0.00 0.00 33 1009.8
20260503035505 3 288 0.0 0.0 0.00 0.00 0.00 80 1018.6
20260503035052 10 78 0.0 3.2 0.00 0.00 0.00 35 1009.9
20260503035002 3 288 0.0 0.0 0.00 0.00 0.00 80 1018.6
20260503034606 10 127 0.0 3.2 0.00 0.00 0.00 35 1009.9
20260503034504 3 288 0.0 0.0 0.00 0.00 0.00 80 1018.7
20260503034052 10 127 0.0 4.8 0.00 0.00 0.00 33 1009.9
20260503034003 3 288 0.0 0.0 0.00 0.00 0.00 79 1018.7
20260503033554 10 127 0.0 4.8 0.00 0.00 0.00 33 1009.8
20260503033503 3 288 0.0 0.0 0.00 0.00 0.00 81 1018.6
20260503033056 10 131 0.0 4.8 0.00 0.00 0.00 33 1009.9
20260503033008 3 288 0.0 0.0 0.00 0.00 0.00 79 1018.6
20260503032551 10 58 0.0 8.0 0.00 0.00 0.00 33 1009.9
20260503032503 3 288 0.0 0.0 0.00 0.00 0.00 78 1018.6
20260503032053 10 49 0.0 8.0 0.00 0.00 0.00 34 1009.8
20260503032007 3 288 0.0 0.0 0.00 0.00 0.00 78 1018.6
20260503031554 10 189 0.0 1.6 0.00 0.00 0.00 36 1009.9
20260503031512 3 288 0.0 0.0 0.00 0.00 0.00 78 1018.6
20260503031051 10 207 0.0 0.0 0.00 0.00 0.00 35 1009.8
20260503031006 3 288 0.0 0.0 0.00 0.00 0.00 77 1018.7
20260503030552 10 207 0.0 0.0 0.00 0.00 0.00 35 1009.8
20260503030507 3 288 0.0 0.0 0.00 0.00 0.00 77 1018.6
20260503030050 10 207 0.0 1.6 0.00 0.00 0.00 34 1009.8
20260503030016 3 288 0.0 0.0 0.00 0.00 0.00 77 1018.6
20260503025550 10 207 0.0 1.6 0.00 0.00 0.00 34 1009.8
20260503025506 3 288 0.0 0.0 0.00 0.00 0.00 76 1018.6
20260503025050 10 207 0.0 0.0 0.00 0.00 0.00 35 1009.8
20260503025007 3 288 0.0 0.0 0.00 0.00 0.00 74 1018.6
20260503024552 10 207 0.0 3.2 0.00 0.00 0.00 33 1009.8
20260503024504 4 288 0.0 0.0 0.00 0.00 0.00 75 1018.6
20260503024050 10 209 0.0 4.8 0.00 0.00 0.00 31 1009.8
20260503024004 4 288 0.0 0.0 0.00 0.00 0.00 74 1018.6
20260503023550 10 208 0.0 4.8 0.00 0.00 0.00 32 1009.7
20260503023503 4 288 0.0 0.0 0.00 0.00 0.00 73 1018.5
20260503023050 10 67 0.0 3.2 0.00 0.00 0.00 33 1009.7
20260503023005 4 288 0.0 0.0 0.00 0.00 0.00 73 1018.5
20260503022549 10 160 0.0 1.6 0.00 0.00 0.00 33 1009.6
20260503022503 4 288 0.0 0.0 0.00 0.00 0.00 72 1018.5
20260503022053 10 164 0.0 1.6 0.00 0.00 0.00 36 1009.6
20260503022010 5 288 0.0 0.0 0.00 0.00 0.00 73 1018.5
20260503021549 10 164 0.0 0.0 0.00 0.00 0.00 35 1009.7
20260503021508 5 288 0.0 0.0 0.00 0.00 0.00 71 1018.4
20260503021055 10 164 0.0 1.6 0.00 0.00 0.00 35 1009.8
20260503021011 5 288 0.0 0.0 0.00 0.00 0.00 70 1018.4
20260503020550 10 164 0.0 1.6 0.00 0.00 0.00 35 1009.9
20260503020503 5 288 0.0 0.0 0.00 0.00 0.00 69 1018.3
20260503020049 10 164 0.0 0.0 0.00 0.00 0.00 35 1009.8
20260503020014 5 288 0.0 0.0 0.00 0.00 0.00 67 1018.3
20260503015551 10 164 0.0 0.0 0.00 0.00 0.00 38 1009.9
20260503015506 5 288 0.0 0.0 0.00 0.00 0.00 67 1018.2
20260503015051 10 164 0.0 0.0 0.00 0.00 0.00 38 1010.0
20260503015010 5 288 0.0 0.0 0.00 0.00 0.00 64 1018.2
20260503014603 10 164 0.0 0.0 0.00 0.00 0.00 40 1010.0
20260503014518 6 288 0.0 0.0 0.00 0.00 0.00 65 1018.1
20260503014051 10 164 0.0 0.0 0.00 0.00 0.00 36 1009.9
20260503014008 6 288 0.0 0.0 0.00 0.00 0.00 62 1018.0
20260503013549 10 164 0.0 0.0 0.00 0.00 0.00 34 1009.9
20260503013506 6 288 0.0 0.0 0.00 0.00 0.00 62 1017.9
20260503013049 10 164 0.0 0.0 0.00 0.00 0.00 33 1010.0
20260503013020 6 288 0.0 0.0 0.00 0.00 0.00 60 1017.9
20260503012550 10 164 0.0 0.0 0.00 0.00 0.00 35 1010.0
20260503012504 6 288 0.0 0.0 0.00 0.00 0.00 60 1017.8
20260503012047 10 164 0.0 0.0 0.00 0.00 0.00 35 1009.9
20260503012003 6 288 0.0 0.0 0.00 0.00 0.00 60 1017.7
20260503011550 10 164 0.0 0.0 0.00 0.00 0.00 35 1009.9
20260503011506 7 288 0.0 0.0 0.00 0.00 0.00 62 1017.6
20260503011050 11 164 0.0 0.0 0.00 0.00 0.00 35 1009.8
20260503011006 7 288 0.0 0.0 0.00 0.00 0.00 61 1017.6
20260503010549 11 164 0.0 1.6 0.00 0.00 0.00 35 1009.8
20260503010503 7 288 0.0 0.0 0.00 0.00 0.00 58 1017.5
20260503010051 11 164 0.0 1.6 0.00 0.00 0.00 34 1009.7
20260503010011 7 288 0.0 1.6 0.00 0.00 0.00 60 1017.5
20260503005550 11 164 0.0 1.6 0.00 0.00 0.00 32 1009.6
20260503005504 7 288 0.0 1.6 0.00 0.00 0.00 63 1017.5
20260503005149 11 164 0.0 0.0 0.00 0.00 0.00 32 1009.6
20260503005007 7 288 0.0 0.0 0.00 0.00 0.00 62 1017.5
20260503004549 11 164 0.0 0.0 0.00 0.00 0.00 33 1009.4
20260503004514 8 288 0.0 3.2 0.00 0.00 0.00 58 1017.4
20260503004050 11 164 0.0 0.0 0.00 0.00 0.00 32 1009.4
20260503004007 8 288 0.0 3.2 0.00 0.00 0.00 56 1017.3
20260503003547 11 164 0.0 0.0 0.00 0.00 0.00 32 1009.4
20260503003506 8 284 0.0 1.6 0.00 0.00 0.00 58 1017.3
20260503003055 11 164 0.0 0.0 0.00 0.00 0.00 32 1009.4
20260503003016 8 287 0.0 3.2 0.00 0.00 0.00 61 1017.2
20260503002548 11 164 0.0 0.0 0.00 0.00 0.00 32 1009.3
20260503002506 8 287 0.0 3.2 0.00 0.00 0.00 56 1017.2
20260503002048 11 164 0.0 0.0 0.00 0.00 0.00 31 1009.4
20260503002009 8 287 0.0 3.2 0.00 0.00 0.00 56 1017.2
20260503001606 11 164 0.0 3.2 0.00 0.00 0.00 30 1009.3
20260503001524 8 285 0.0 3.2 0.00 0.00 0.00 60 1017.1
20260503001047 12 360 0.0 3.2 0.00 0.00 0.00 31 1009.1
20260503001003 8 295 0.0 3.2 0.00 0.00 0.00 55 1017.0
20260503000544 12 360 0.0 3.2 0.00 0.00 0.00 32 1009.2
20260503000504 8 295 0.0 3.2 0.00 0.00 0.00 58 1016.9
20260503000048 12 360 0.0 1.6 0.00 0.00 0.00 32 1009.1
20260503000005 8 295 0.0 3.2 0.00 0.00 0.00 52 1016.8
20260502235544 12 360 0.0 3.2 0.00 0.00 0.00 31 1009.0
20260502235503 8 294 0.0 1.6 0.00 0.00 0.00 53 1016.8
20260502235044 12 360 0.0 4.8 0.00 0.00 0.00 32 1009.2
20260502235006 9 295 0.0 1.6 0.00 0.00 0.00 53 1016.8
20260502234548 12 360 0.0 4.8 0.00 0.00 0.00 30 1009.2
20260502234513 9 295 0.0 1.6 0.00 0.00 0.00 54 1016.7
20260502234044 12 360 0.0 4.8 0.00 0.00 0.00 29 1009.2
20260502234008 9 295 0.0 3.2 0.00 0.00 0.00 52 1016.7
20260502233543 12 360 0.0 4.8 0.00 0.00 0.00 26 1009.1
20260502233508 9 295 0.0 4.8 0.00 0.00 0.00 46 1016.7
20260502233043 13 360 0.0 8.0 0.00 0.00 0.00 28 1009.0
20260502233019 10 290 0.0 4.8 0.00 0.00 0.00 54 1016.8
20260502232544 13 360 1.6 8.0 0.00 0.00 0.00 26 1009.0
20260502232507 10 299 1.6 8.0 0.00 0.00 0.00 46 1016.8
20260502232043 13 360 0.0 4.8 0.00 0.00 0.00 27 1008.9
20260502232003 10 291 1.6 8.0 0.00 0.00 0.00 50 1016.7
20260502231542 13 360 0.0 3.2 0.00 0.00 0.00 28 1008.9
20260502231508 10 291 1.6 6.4 0.00 0.00 0.00 48 1016.7
20260502231042 13 360 0.0 3.2 0.00 0.00 0.00 28 1009.0
20260502231003 10 294 3.2 6.4 0.00 0.00 0.00 47 1016.7
20260502230543 13 360 0.0 3.2 0.00 0.00 0.00 27 1008.9
20260502230504 10 294 3.2 8.0 0.00 0.00 0.00 46 1016.7
20260502230042 13 360 0.0 4.8 0.00 0.00 0.00 29 1008.9
20260502230004 10 297 3.2 8.0 0.00 0.00 0.00 46 1016.7
20260502225541 14 360 0.0 4.8 0.00 0.00 0.00 30 1008.7
20260502225504 11 294 3.2 6.4 0.00 0.00 0.00 47 1016.7
20260502225041 14 360 0.0 3.2 0.00 0.00 0.00 25 1008.6
20260502225003 11 293 0.0 4.8 0.00 0.00 0.00 50 1016.6
20260502224541 14 360 0.0 4.8 0.00 0.00 0.00 24 1008.5
20260502224508 11 293 1.6 4.8 0.00 0.00 0.00 44 1016.6
20260502224042 14 360 0.0 3.2 0.00 0.00 0.00 24 1008.5
20260502224004 11 300 1.6 4.8 0.00 0.00 0.00 47 1016.7
20260502223541 14 360 0.0 3.2 0.00 0.00 0.00 25 1008.5
20260502223504 11 300 1.6 4.8 0.00 0.00 0.00 50 1016.7
20260502223041 14 360 0.0 4.8 0.00 0.00 0.00 24 1008.5
20260502223012 10 302 0.0 9.7 0.00 0.00 0.00 51 1016.6
20260502222541 14 130 0.0 4.8 0.00 0.00 0.00 26 1008.6
20260502222508 11 280 3.2 9.7 0.00 0.00 0.00 47 1016.6
20260502222044 14 265 0.0 4.8 0.00 0.00 0.00 25 1008.6
20260502222007 11 288 3.2 6.4 0.00 0.00 0.00 41 1016.5
20260502221544 14 212 0.0 6.4 0.00 0.00 0.00 25 1008.6
20260502221516 11 300 3.2 6.4 0.00 0.00 0.00 50 1016.5
20260502221039 14 292 0.0 6.4 0.00 0.00 0.00 27 1008.6
20260502221002 11 290 0.0 4.8 0.00 0.00 0.00 47 1016.4
20260502220539 14 120 0.0 4.8 0.00 0.00 0.00 26 1008.6
20260502220504 11 295 1.6 4.8 0.00 0.00 0.00 48 1016.4
20260502220040 15 172 0.0 4.8 0.00 0.00 0.00 27 1008.6
20260502220004 11 296 0.0 4.8 0.00 0.00 0.00 49 1016.4
20260502215539 15 169 0.0 4.8 0.00 0.00 0.00 28 1008.5
20260502215505 11 296 1.6 4.8 0.00 0.00 0.00 42 1016.4
20260502215038 15 173 1.6 4.8 0.00 0.00 0.00 26 1008.5
20260502215004 11 296 1.6 8.0 0.00 0.00 0.00 47 1016.4
20260502214548 15 216 0.0 3.2 0.00 0.00 0.00 28 1008.4
20260502214504 11 313 3.2 8.0 0.00 0.00 0.00 45 1016.3
20260502214038 15 100 1.6 8.0 0.00 0.00 0.00 25 1008.3
20260502214004 11 302 1.6 8.0 0.00 0.00 0.00 44 1016.3
20260502213541 15 49 0.0 4.8 0.00 0.00 0.00 25 1008.4
20260502213506 11 296 0.0 4.8 0.00 0.00 0.00 46 1016.3
20260502213040 15 128 0.0 3.2 0.00 0.00 0.00 26 1008.4
20260502213009 11 296 1.6 4.8 0.00 0.00 0.00 47 1016.3
20260502212538 15 153 0.0 3.2 0.00 0.00 0.00 25 1008.3
20260502212504 12 301 1.6 4.8 0.00 0.00 0.00 48 1016.3
20260502212038 15 128 0.0 4.8 0.00 0.00 0.00 26 1008.3
20260502212005 11 303 3.2 6.4 0.00 0.00 0.00 41 1016.2
20260502211538 15 295 0.0 4.8 0.00 0.00 0.00 24 1008.2
20260502211524 11 302 1.6 6.4 0.00 0.00 0.00 40 1016.2
20260502211037 15 148 0.0 4.8 0.00 0.00 0.00 27 1008.1
20260502211007 11 304 3.2 4.8 0.00 0.00 0.00 44 1016.2
20260502210537 15 66 0.0 4.8 0.00 0.00 0.00 27 1008.2
20260502210506 11 300 1.6 8.0 0.00 0.00 0.00 47 1016.2
20260502210041 15 72 1.6 4.8 0.00 0.00 0.00 27 1008.1
20260502210026 11 288 1.6 8.0 0.00 0.00 0.00 43 1016.2
20260502205537 15 131 1.6 4.8 0.00 0.00 0.00 27 1008.0
20260502205505 12 289 3.2 9.7 0.00 0.00 0.00 41 1016.3
20260502205041 15 300 1.6 4.8 0.00 0.00 0.00 25 1008.1
20260502205004 11 345 3.2 9.7 0.00 0.00 0.00 45 1016.2
20260502204536 15 176 0.0 3.2 0.00 0.00 0.00 25 1007.9
20260502204504 11 297 3.2 6.4 0.00 0.00 0.00 44 1016.1
20260502204037 15 203 0.0 3.2 0.00 0.00 0.00 27 1008.1
20260502204004 12 250 3.2 6.4 0.00 0.00 0.00 38 1016.2
20260502203536 15 203 0.0 3.2 0.00 0.00 0.00 27 1008.1
20260502203504 12 301 4.8 6.4 0.00 0.00 0.00 40 1016.2
20260502203038 15 175 0.0 3.2 0.00 0.00 0.00 27 1008.3
20260502203008 11 292 1.6 3.2 0.00 0.00 0.00 50 1016.2
20260502202535 15 174 0.0 4.8 0.00 0.00 0.00 29 1008.3
20260502202503 11 302 0.0 6.4 0.00 0.00 0.00 46 1016.3
20260502202036 15 15 0.0 4.8 0.00 0.00 0.00 30 1008.4
20260502202006 11 300 1.6 6.4 0.00 0.00 0.00 43 1016.3